View from above orbital plane
|
View from above satellite
|
Ground track
|
The orbit data is extracted from the following two-line orbital elements,
1 23657U 95046A 21058.48169954 .00000251 00000-0 25676-4 0 9997
2 23657 82.5243 70.9696 0020513 289.0723 70.8272 14.86251834377856
Epoch (UTC): | 27 February 2021 11:33:38 |
Eccentricity: | 0.0020513 |
inclination: | 82.5243° |
perigee height: | 595 km |
apogee height: | 624 km |
right ascension of ascending node: | 70.9696° |
argument of perigee: | 289.0723° |
revolutions per day: | 14.86251834 |
mean anomaly at epoch: | 70.8272° |
orbit number at epoch: | 37785 |
The dashed part of the orbit path shows where the satellite is in the earth's shadow,
|
|